Orbital Elements
The following orbital elements are taken from MPO179790
Epoch 2010 July 23.0 TT = JDT 2455400.5 MPC
M 13.66494 (2000.0) P Q
n 0.24807215 Peri. 210.69708 -0.93333565 -0.18051421
a 2.5085189 Node 315.26769 +0.34613336 -0.68185644
e 0.9560652 Incl. 26.16292 -0.09526938 -0.70886276
P 3.97 H 19.1 G 0.15 U 0
From 124 observations at 2 oppositions, 2002-2010, mean residual 0".62.
|